DW4505 Weather Reports


time (UTC)temp
F
wind
direction
speed
knots
gust
knots
rain 1hr
in
rain 24hr
in
rain mn
in
humidity
%
barometer
mb
20210723153509 85 6 0.0 0.9 0.00 0.00 0.00 74 1019.4
20210723153009 85 14 0.0 2.6 0.00 0.00 0.00 74 1019.4
20210723152509 85 10 0.0 2.6 0.00 0.00 0.00 76 1019.4
20210723152009 84 212 0.0 0.9 0.00 0.00 0.00 75 1019.5
20210723151509 85 127 0.9 3.5 0.00 0.00 0.00 74 1019.5
20210723151009 85 125 0.9 3.5 0.00 0.00 0.00 74 1019.5
20210723150510 85 149 0.0 0.9 0.00 0.00 0.00 74 1019.4
20210723150009 85 0 0.0 0.0 0.00 0.00 0.00 75 1019.4
20210723145509 84 0 0.0 0.0 0.00 0.00 0.00 75 1019.4
20210723145009 85 0 0.0 0.0 0.00 0.00 0.00 75 1019.4
20210723144509 85 110 0.0 1.7 0.00 0.00 0.00 74 1019.3
20210723144009 85 123 0.0 1.7 0.00 0.00 0.00 73 1019.3
20210723143510 85 123 0.0 1.7 0.00 0.00 0.00 75 1019.3
20210723143009 84 41 0.0 0.9 0.00 0.00 0.00 75 1019.2
20210723142509 84 33 0.0 0.9 0.00 0.00 0.00 76 1019.1
20210723142008 84 6 0.0 0.9 0.00 0.00 0.00 77 1019.2
20210723141509 83 356 0.0 0.9 0.00 0.00 0.00 77 1019.2
20210723141010 83 107 0.0 0.9 0.00 0.00 0.00 76 1019.1
20210723140510 83 115 0.0 0.9 0.00 0.00 0.00 77 1019.1
20210723140009 83 121 0.0 0.9 0.00 0.00 0.00 78 1019.2
20210723135509 82 126 0.0 0.9 0.00 0.00 0.00 78 1019.2
20210723135009 82 126 0.0 0.9 0.00 0.00 0.00 79 1019.2
20210723134508 82 0 0.0 0.0 0.00 0.00 0.00 79 1019.3
20210723134009 81 0 0.0 0.0 0.00 0.00 0.00 80 1019.2
20210723133508 80 0 0.0 0.0 0.00 0.00 0.00 80 1019.2
20210723133008 80 0 0.0 0.0 0.00 0.00 0.00 81 1019.2
20210723132508 80 0 0.0 0.0 0.00 0.00 0.00 81 1019.1
20210723132008 80 0 0.0 0.0 0.00 0.00 0.00 81 1019.0
20210723131509 79 0 0.0 0.0 0.00 0.00 0.00 82 1019.0
20210723131008 79 0 0.0 0.0 0.00 0.00 0.00 82 1019.0
20210723130508 79 0 0.0 0.0 0.00 0.00 0.00 83 1018.9
20210723130008 78 0 0.0 0.0 0.00 0.00 0.00 84 1018.8
20210723125509 77 0 0.0 0.0 0.00 0.00 0.00 85 1018.7
20210723125009 77 0 0.0 0.0 0.00 0.00 0.00 86 1018.7
20210723124508 76 0 0.0 0.0 0.00 0.00 0.00 86 1018.8
20210723124008 76 0 0.0 0.0 0.00 0.00 0.00 87 1018.7
20210723123508 75 0 0.0 0.0 0.00 0.00 0.00 87 1018.6
20210723123009 75 0 0.0 0.0 0.00 0.00 0.00 88 1018.6
20210723122509 75 0 0.0 0.0 0.00 0.00 0.00 88 1018.5
20210723122008 74 0 0.0 0.0 0.00 0.00 0.00 88 1018.5
20210723121509 74 0 0.0 0.0 0.00 0.00 0.00 89 1018.3
20210723121008 74 0 0.0 0.0 0.00 0.00 0.00 89 1018.3
20210723120508 74 0 0.0 0.0 0.00 0.00 0.00 89 1018.4
20210723120009 73 0 0.0 0.0 0.00 0.00 0.00 90 1018.3
20210723115509 73 0 0.0 0.0 0.00 0.00 0.00 90 1018.3
20210723115008 73 0 0.0 0.0 0.00 0.00 0.00 90 1018.4
20210723114508 73 0 0.0 0.0 0.00 0.00 0.00 91 1018.4
20210723114009 73 0 0.0 0.0 0.00 0.00 0.00 91 1018.4
20210723113508 73 0 0.0 0.0 0.00 0.00 0.00 91 1018.3
20210723113009 73 0 0.0 0.0 0.00 0.00 0.00 91 1018.3
20210723112509 72 0 0.0 0.0 0.00 0.00 0.00 92 1018.1
20210723112014 72 0 0.0 0.0 0.00 0.00 0.00 92 1018.0
20210723111509 72 0 0.0 0.0 0.00 0.00 0.00 92 1018.0
20210723111010 72 0 0.0 0.0 0.00 0.00 0.00 92 1018.0
20210723110510 72 0 0.0 0.0 0.00 0.00 0.00 92 1017.9
20210723110009 72 0 0.0 0.0 0.00 0.00 0.00 92 1018.1
20210723105510 72 0 0.0 0.0 0.00 0.00 0.00 92 1018.0
20210723105010 72 0 0.0 0.0 0.00 0.00 0.00 92 1017.9
20210723104509 72 0 0.0 0.0 0.00 0.00 0.00 92 1017.9
20210723104009 72 0 0.0 0.0 0.00 0.00 0.00 92 1017.9
20210723103509 72 0 0.0 0.0 0.00 0.00 0.00 92 1017.8
20210723103010 72 0 0.0 0.0 0.00 0.00 0.00 92 1017.8
20210723102509 72 0 0.0 0.0 0.00 0.00 0.00 92 1017.8
20210723102009 72 0 0.0 0.0 0.00 0.00 0.00 92 1017.7
20210723101509 72 0 0.0 0.0 0.00 0.00 0.00 92 1017.7
20210723101009 73 0 0.0 0.0 0.00 0.00 0.00 92 1017.7
20210723100509 73 0 0.0 0.0 0.00 0.00 0.00 92 1017.7
20210723100009 73 0 0.0 0.0 0.00 0.00 0.00 92 1017.7
20210723095509 73 0 0.0 0.0 0.00 0.00 0.00 92 1017.6
20210723095009 73 0 0.0 0.0 0.00 0.00 0.00 92 1017.6
20210723094510 73 0 0.0 0.0 0.00 0.00 0.00 92 1017.6
20210723094009 73 0 0.0 0.0 0.00 0.00 0.00 92 1017.6
20210723093510 73 0 0.0 0.0 0.00 0.00 0.00 92 1017.7
20210723093010 73 0 0.0 0.0 0.00 0.00 0.00 92 1017.7
20210723092510 73 0 0.0 0.0 0.00 0.00 0.00 92 1017.7
20210723092009 73 0 0.0 0.0 0.00 0.00 0.00 92 1017.6
20210723091509 74 0 0.0 0.0 0.00 0.00 0.00 92 1017.6
20210723091010 74 0 0.0 0.0 0.00 0.00 0.00 92 1017.6
20210723090509 74 0 0.0 0.0 0.00 0.00 0.00 92 1017.7
20210723090010 74 0 0.0 0.0 0.00 0.00 0.00 93 1017.7
20210723085510 74 0 0.0 0.0 0.00 0.00 0.00 93 1017.6
20210723085010 74 0 0.0 0.0 0.00 0.00 0.00 93 1017.6
20210723084509 74 0 0.0 0.0 0.00 0.00 0.00 93 1017.6
20210723084009 74 0 0.0 0.0 0.00 0.00 0.00 93 1017.5
20210723083509 74 0 0.0 0.0 0.00 0.00 0.00 93 1017.5
20210723083009 74 0 0.0 0.0 0.00 0.00 0.00 93 1017.5
20210723082509 74 0 0.0 0.0 0.00 0.00 0.00 92 1017.4
20210723082010 74 0 0.0 0.0 0.00 0.00 0.00 92 1017.4
20210723081510 74 0 0.0 0.0 0.00 0.00 0.00 92 1017.5
20210723081010 74 0 0.0 0.0 0.00 0.00 0.00 92 1017.4
20210723080509 74 0 0.0 0.0 0.00 0.00 0.00 92 1017.5
20210723080010 74 0 0.0 0.0 0.00 0.00 0.00 92 1017.4
20210723075510 74 0 0.0 0.0 0.00 0.00 0.00 92 1017.5
20210723075010 74 0 0.0 0.0 0.00 0.00 0.00 92 1017.4
20210723074509 74 0 0.0 0.0 0.00 0.00 0.00 92 1017.5
20210723074014 74 0 0.0 0.0 0.00 0.00 0.00 92 1017.4
20210723073509 74 0 0.0 0.0 0.00 0.00 0.00 92 1017.4
20210723073010 74 0 0.0 0.0 0.00 0.00 0.00 92 1017.4
20210723072509 74 0 0.0 0.0 0.00 0.00 0.00 93 1017.3
20210723072010 74 0 0.0 0.0 0.00 0.00 0.00 92 1017.3
20210723071510 74 0 0.0 0.0 0.00 0.00 0.00 93 1017.2
20210723071010 74 0 0.0 0.0 0.00 0.00 0.00 92 1017.2
20210723070510 74 100 0.0 0.9 0.00 0.00 0.00 92 1017.2
20210723070010 74 100 0.0 0.9 0.00 0.00 0.00 92 1017.2
20210723065510 74 0 0.0 0.0 0.00 0.00 0.00 92 1017.3
20210723065010 74 0 0.0 0.0 0.00 0.00 0.00 92 1017.3
20210723064509 74 0 0.0 0.0 0.00 0.00 0.00 92 1017.3
20210723064010 74 102 0.0 2.6 0.00 0.00 0.00 92 1017.5
20210723063510 75 102 0.0 2.6 0.00 0.00 0.00 92 1017.5
20210723063010 75 0 0.0 0.0 0.00 0.00 0.00 91 1017.5
20210723062510 75 0 0.0 0.0 0.00 0.00 0.00 91 1017.5
20210723062011 75 0 0.0 0.0 0.00 0.00 0.00 91 1017.6
20210723061509 75 0 0.0 0.0 0.00 0.00 0.00 91 1017.6
20210723061009 75 0 0.0 0.0 0.00 0.00 0.00 91 1017.6
20210723060510 75 0 0.0 0.0 0.00 0.00 0.00 90 1017.8
20210723060009 75 0 0.0 0.0 0.00 0.00 0.00 90 1018.0
20210723055509 75 0 0.0 0.0 0.00 0.00 0.00 90 1018.0
20210723055010 75 0 0.0 0.0 0.00 0.00 0.00 90 1018.1
20210723054510 75 0 0.0 0.0 0.00 0.00 0.00 90 1018.1
20210723054008 75 0 0.0 0.0 0.00 0.00 0.00 89 1018.1
20210723053508 75 0 0.0 0.0 0.00 0.00 0.00 89 1018.2
20210723053008 76 0 0.0 0.0 0.00 0.00 0.00 89 1018.3
20210723052508 76 0 0.0 0.0 0.00 0.00 0.00 89 1018.3
20210723052008 76 0 0.0 0.0 0.00 0.00 0.00 88 1018.4
20210723051508 76 0 0.0 0.0 0.00 0.00 0.00 88 1018.4
20210723051008 76 0 0.0 0.0 0.00 0.00 0.00 88 1018.4
20210723050508 76 0 0.0 0.0 0.00 0.00 0.00 88 1018.5
20210723050009 76 0 0.0 0.0 0.00 0.00 0.00 88 1018.4
20210723045509 77 0 0.0 0.0 0.00 0.00 0.00 88 1018.4
20210723045008 77 0 0.0 0.0 0.00 0.00 0.00 88 1018.4
20210723044508 77 0 0.0 0.0 0.00 0.00 0.00 88 1018.3
20210723044009 77 0 0.0 0.0 0.00 0.00 0.00 88 1018.3
20210723043509 77 0 0.0 0.0 0.00 0.00 0.00 88 1018.2
20210723043008 78 0 0.0 0.0 0.00 0.00 0.00 88 1018.2
20210723042508 78 0 0.0 0.0 0.00 0.00 0.00 88 1018.2
20210723042008 78 0 0.0 0.0 0.00 0.00 0.00 88 1018.2
20210723041508 78 0 0.0 0.0 0.00 0.00 0.00 88 1018.2
20210723041008 78 0 0.0 0.0 0.00 0.00 0.00 87 1018.2
20210723040508 79 0 0.0 0.0 0.00 0.00 0.00 87 1018.2
20210723040013 79 0 0.0 0.0 0.00 0.00 0.00 87 1018.2
20210723035509 79 0 0.0 0.0 0.00 0.00 0.00 87 1018.3
20210723035009 79 0 0.0 0.0 0.00 0.00 0.00 86 1018.3
20210723034508 80 0 0.0 0.0 0.00 0.00 0.00 86 1018.2
20210723034010 80 0 0.0 0.0 0.00 0.00 0.00 85 1018.2
20210723033509 80 0 0.0 0.0 0.00 0.00 0.00 84 1018.2
20210723033008 80 0 0.0 0.0 0.00 0.00 0.00 84 1018.1
20210723032508 80 0 0.0 0.0 0.00 0.00 0.00 84 1018.1
20210723032009 80 0 0.0 0.0 0.00 0.00 0.00 84 1018.1
20210723031508 80 0 0.0 0.0 0.00 0.00 0.00 84 1018.1
20210723031008 80 0 0.0 0.0 0.00 0.00 0.00 84 1018.2
20210723030509 80 0 0.0 0.0 0.00 0.00 0.00 83 1018.1
20210723030008 81 0 0.0 0.0 0.00 0.00 0.00 83 1018.2
20210723025508 81 0 0.0 0.0 0.00 0.00 0.00 82 1018.2
20210723025008 81 0 0.0 0.0 0.00 0.00 0.00 82 1018.2
20210723024509 81 0 0.0 0.0 0.00 0.00 0.00 82 1018.2
20210723024009 81 0 0.0 0.0 0.00 0.00 0.00 81 1018.2
20210723023509 82 0 0.0 0.0 0.00 0.00 0.00 80 1018.2
20210723023009 82 0 0.0 0.0 0.00 0.00 0.00 79 1018.2
20210723022509 82 0 0.0 0.0 0.00 0.00 0.00 79 1018.1
20210723022009 82 0 0.0 0.0 0.00 0.00 0.00 79 1018.1
20210723021509 83 0 0.0 0.0 0.00 0.00 0.00 78 1018.0
20210723021008 83 0 0.0 0.0 0.00 0.00 0.00 78 1018.0
20210723020508 83 0 0.0 0.0 0.00 0.00 0.00 78 1018.0
20210723020008 83 0 0.0 0.0 0.00 0.00 0.00 78 1018.0
20210723015508 83 0 0.0 0.0 0.00 0.00 0.00 77 1018.0
20210723015008 84 0 0.0 0.0 0.00 0.00 0.00 77 1017.9
20210723014508 84 0 0.0 0.0 0.00 0.00 0.00 76 1017.8
20210723014009 84 0 0.0 0.0 0.00 0.00 0.00 76 1017.7
20210723013508 84 0 0.0 0.0 0.00 0.00 0.00 76 1017.6
20210723013008 84 0 0.0 0.0 0.00 0.00 0.00 75 1017.6
20210723012509 84 0 0.0 0.0 0.00 0.00 0.00 75 1017.5
20210723012009 84 0 0.0 0.0 0.00 0.00 0.00 74 1017.4
20210723011509 84 0 0.0 0.0 0.00 0.00 0.00 74 1017.4
20210723011009 85 0 0.0 0.0 0.00 0.00 0.00 73 1017.4
20210723010509 84 0 0.0 0.0 0.00 0.00 0.00 73 1017.3
20210723010008 85 0 0.0 0.0 0.00 0.00 0.00 73 1017.2
20210723005508 85 0 0.0 0.0 0.00 0.00 0.00 73 1017.2
20210723005008 85 0 0.0 0.0 0.00 0.00 0.00 73 1017.2
20210723004509 85 0 0.0 0.0 0.00 0.00 0.00 73 1017.1
20210723004009 85 0 0.0 0.0 0.00 0.00 0.00 73 1017.1
20210723003509 85 0 0.0 0.0 0.00 0.00 0.00 72 1017.2
20210723003008 85 0 0.0 0.0 0.00 0.00 0.00 72 1017.1
20210723002508 85 0 0.0 0.0 0.00 0.00 0.00 72 1017.1
20210723002008 85 0 0.0 0.0 0.00 0.00 0.00 71 1017.1
20210723001509 86 0 0.0 0.0 0.00 0.00 0.00 71 1017.0
20210723001009 86 0 0.0 0.0 0.00 0.00 0.00 71 1017.0
20210723000508 86 0 0.0 0.0 0.00 0.00 0.00 72 1017.0
20210723000008 86 0 0.0 0.0 0.00 0.00 0.00 71 1016.9
20210722235509 86 90 0.0 0.9 0.00 0.00 0.00 70 1016.9
20210722235009 86 229 0.0 2.6 0.00 0.00 0.00 69 1016.8
20210722234509 86 245 0.0 2.6 0.00 0.00 0.00 69 1016.7
20210722234013 87 205 0.0 2.6 0.00 0.00 0.00 69 1016.7
20210722233509 87 187 0.0 3.5 0.00 0.00 0.00 68 1016.6
20210722233009 88 175 0.0 3.5 0.00 0.00 0.00 68 1016.6
20210722232509 88 172 0.0 1.7 0.00 0.00 0.00 67 1016.5
20210722232009 88 0 0.0 0.0 0.00 0.00 0.00 67 1016.5
20210722231509 89 0 0.0 0.0 0.00 0.00 0.00 67 1016.5
20210722231009 89 0 0.0 0.0 0.00 0.00 0.00 65 1016.4
20210722230508 90 215 0.0 0.9 0.00 0.00 0.00 63 1016.4
20210722230008 90 215 0.0 0.9 0.00 0.00 0.00 62 1016.4
20210722225509 90 215 0.0 0.9 0.00 0.00 0.00 61 1016.4
20210722225009 90 215 0.0 0.9 0.00 0.00 0.00 60 1016.4
20210722224508 90 215 0.0 0.9 0.00 0.00 0.00 60 1016.5
20210722224008 90 215 0.0 0.9 0.00 0.00 0.00 60 1016.5
20210722223509 90 0 0.0 0.0 0.00 0.00 0.00 62 1016.5
20210722223010 90 0 0.0 0.0 0.00 0.00 0.00 62 1016.6
20210722222509 91 0 0.0 0.0 0.00 0.00 0.00 60 1016.6
20210722222009 91 0 0.0 0.0 0.00 0.00 0.00 59 1016.5
20210722221509 91 0 0.0 0.0 0.00 0.00 0.00 59 1016.6
20210722221009 92 210 0.0 0.9 0.00 0.00 0.00 59 1016.5
20210722220509 92 210 0.0 0.9 0.00 0.00 0.00 58 1016.5
20210722220009 92 235 0.0 0.9 0.00 0.00 0.00 56 1016.5
20210722215509 93 235 0.0 0.9 0.00 0.00 0.00 56 1016.6
20210722215009 93 0 0.0 0.0 0.00 0.00 0.00 56 1016.5
20210722214509 94 0 0.0 0.0 0.00 0.00 0.00 56 1016.5
20210722214008 94 0 0.0 0.0 0.00 0.00 0.00 55 1016.5
20210722213509 94 40 0.0 0.9 0.00 0.00 0.00 52 1016.4
20210722213009 94 40 0.0 0.9 0.00 0.00 0.00 50 1016.4
20210722212509 94 0 0.0 0.0 0.00 0.00 0.00 55 1016.3
20210722212009 94 62 0.0 0.9 0.00 0.00 0.00 55 1016.4
20210722211509 94 51 0.0 0.9 0.00 0.00 0.00 57 1016.3
20210722211010 94 58 0.0 0.9 0.00 0.00 0.00 57 1016.3
20210722210531 94 71 0.0 0.9 0.00 0.00 0.00 55 1016.2
20210722210031 94 17 0.0 0.9 0.00 0.00 0.00 55 1016.2
20210722205510 94 39 0.0 0.9 0.00 0.00 0.00 56 1016.1
20210722205010 94 102 0.0 0.9 0.00 0.00 0.00 53 1016.1
20210722204508 94 9 0.0 0.9 0.00 0.00 0.00 55 1016.2
20210722204009 94 6 0.0 0.9 0.00 0.00 0.00 55 1016.3
20210722203509 94 9 0.0 0.9 0.00 0.00 0.00 56 1016.3
20210722203009 94 54 0.0 0.9 0.00 0.00 0.00 54 1016.3
20210722202509 94 135 0.0 0.9 0.00 0.00 0.00 56 1016.3
20210722202009 95 153 0.0 0.9 0.00 0.00 0.00 56 1016.2
20210722201509 94 150 0.0 0.9 0.00 0.00 0.00 54 1016.3
20210722201009 94 12 0.0 0.9 0.00 0.00 0.00 56 1016.3
20210722200508 94 9 0.0 0.9 0.00 0.00 0.00 53 1016.3
20210722200010 94 254 0.0 2.6 0.00 0.00 0.00 51 1016.3
20210722195508 94 257 0.0 2.6 0.00 0.00 0.00 54 1016.3
20210722195009 94 2 0.0 3.5 0.00 0.00 0.00 53 1016.4
20210722194509 94 2 0.0 3.5 0.00 0.00 0.00 52 1016.3
20210722194013 94 339 0.0 0.9 0.00 0.00 0.00 55 1016.3
20210722193509 93 358 0.0 2.6 0.00 0.00 0.00 53 1016.3
20210722193009 94 7 0.0 2.6 0.00 0.00 0.00 52 1016.4
20210722192509 94 94 0.0 1.7 0.00 0.00 0.00 58 1016.4
20210722192009 93 86 0.0 1.7 0.00 0.00 0.00 58 1016.4
20210722191509 93 34 0.0 0.9 0.00 0.00 0.00 59 1016.4
20210722191009 92 19 0.0 0.9 0.00 0.00 0.00 59 1016.5
20210722190509 92 342 0.0 0.9 0.00 0.00 0.00 59 1016.4
20210722190010 94 35 0.0 0.9 0.00 0.00 0.00 58 1016.4
20210722185509 94 57 0.0 0.9 0.00 0.00 0.00 57 1016.4
20210722185009 94 223 0.0 2.6 0.00 0.00 0.00 56 1016.4
20210722184509 94 254 0.0 2.6 0.00 0.00 0.00 54 1016.5
20210722184009 94 351 0.0 2.6 0.00 0.00 0.00 53 1016.5
20210722183509 95 354 0.0 0.9 0.00 0.00 0.00 56 1016.5
20210722183009 94 348 0.0 0.9 0.00 0.00 0.00 55 1016.5
20210722182510 94 5 0.0 0.9 0.00 0.00 0.00 55 1016.6
20210722182009 95 18 0.0 0.9 0.00 0.00 0.00 53 1016.7
20210722181509 95 295 0.0 0.9 0.00 0.00 0.00 56 1016.8
20210722181009 94 18 0.0 0.9 0.00 0.00 0.00 54 1016.8
20210722180509 94 265 0.0 1.7 0.00 0.00 0.00 57 1016.8
20210722180009 93 265 0.0 1.7 0.00 0.00 0.00 54 1017.0
20210722175509 94 227 0.0 0.9 0.00 0.00 0.00 56 1017.0
20210722175009 94 230 0.0 1.7 0.00 0.00 0.00 56 1017.1
20210722174510 93 244 0.0 1.7 0.00 0.00 0.00 56 1017.1
20210722174009 93 268 0.0 1.7 0.00 0.00 0.00 58 1017.1
20210722173509 93 322 0.0 0.9 0.00 0.00 0.00 56 1017.2
20210722173009 94 64 0.0 0.9 0.00 0.00 0.00 55 1017.3
20210722172509 94 73 0.0 0.9 0.00 0.00 0.00 57 1017.3
20210722172009 93 73 0.0 0.9 0.00 0.00 0.00 58 1017.4
20210722171509 92 297 0.0 0.9 0.00 0.00 0.00 60 1017.4
20210722171009 92 300 0.0 0.9 0.00 0.00 0.00 60 1017.4
20210722170509 92 127 0.0 2.6 0.00 0.00 0.00 61 1017.4
20210722170009 92 126 0.9 2.6 0.00 0.00 0.00 61 1017.4
20210722165509 92 120 0.0 2.6 0.00 0.00 0.00 64 1017.5
20210722165009 92 117 0.0 2.6 0.00 0.00 0.00 61 1017.5
20210722164509 92 73 0.0 0.9 0.00 0.00 0.00 63 1017.6
20210722164009 92 75 0.0 0.9 0.00 0.00 0.00 62 1017.6
20210722163509 91 87 0.0 0.9 0.00 0.00 0.00 62 1017.7
20210722163010 91 22 0.0 1.7 0.00 0.00 0.00 63 1017.7
20210722162509 91 3 0.0 1.7 0.00 0.00 0.00 63 1017.8
20210722162010 90 348 0.0 2.6 0.00 0.00 0.00 62 1017.8
20210722161509 90 346 0.0 2.6 0.00 0.00 0.00 64 1017.9
20210722161009 90 342 0.0 1.7 0.00 0.00 0.00 65 1017.9
20210722160510 90 328 0.0 0.9 0.00 0.00 0.00 66 1018.0
20210722160009 90 356 0.0 0.9 0.00 0.00 0.00 65 1018.0
20210722155509 89 13 0.0 0.9 0.00 0.00 0.00 64 1017.9
20210722155009 89 17 0.0 0.9 0.00 0.00 0.00 67 1018.0
20210722154509 89 4 0.0 0.9 0.00 0.00 0.00 67 1018.0
20210722154014 89 226 0.0 2.6 0.00 0.00 0.00 67 1018.0